| time (UTC) | temp F | wind direction | speed MPH | gust MPH | rain 1hr in | rain 24hr in | rain mn in | humidity % | barometer mb |
| 20260901231337 | 99 | 69 | 0.0 | 0.0 | 0.00 | 0.00 | 0.00 | ||
| 20260901230331 | 99 | 69 | 0.0 | 0.0 | 0.00 | 0.00 | 0.00 | ||
| 20260901225830 | 99 | 69 | 0.0 | 0.0 | 0.00 | 0.00 | 0.00 | ||
| 20260901222816 | 103 | 96 | 0.0 | 0.0 | 0.00 | 0.00 | 0.00 | ||
| 20260901222307 | 102 | 96 | 0.0 | 0.0 | 0.00 | 0.00 | 0.00 | ||
| 20260901221809 | 101 | 96 | 0.0 | 0.0 | 0.00 | 0.00 | 0.00 | ||
| 20260901221304 | 101 | 96 | 0.0 | 0.0 | 0.00 | 0.00 | 0.00 | ||
| 20260901220757 | 102 | 75 | 0.0 | 0.0 | 0.00 | 0.00 | 0.00 | ||
| 20260901220254 | 105 | 75 | 0.0 | 0.0 | 0.00 | 0.00 | 0.00 | ||
| 20260901215754 | 105 | 75 | 0.0 | 0.0 | 0.00 | 0.00 | 0.00 | ||
| 20260901215248 | 102 | 75 | 0.0 | 0.0 | 0.00 | 0.00 | 0.00 | ||
| 20260901214747 | 104 | 75 | 0.0 | 0.0 | 0.00 | 0.00 | 0.00 | ||
| 20260901214246 | 102 | 75 | 0.0 | 0.0 | 0.00 | 0.00 | 0.00 | ||
| 20260901213740 | 100 | 75 | 0.0 | 0.0 | 0.00 | 0.00 | 0.00 | ||
| 20260901211731 | 103 | 75 | 0.0 | 0.0 | 0.00 | 0.00 | 0.00 | ||
| 20260901210224 | 101 | 75 | 0.0 | 0.0 | 0.00 | 0.00 | 0.00 | ||
| 20260901205723 | 101 | 75 | 0.0 | 0.0 | 0.00 | 0.00 | 0.00 | ||
| 20260901204717 | 100 | 75 | 0.0 | 0.0 | 0.00 | 0.00 | 0.00 | ||
| 20260901204216 | 104 | 75 | 0.0 | 0.0 | 0.00 | 0.00 | 0.00 | ||
| 20260901203210 | 104 | 75 | 0.0 | 0.0 | 0.00 | 0.00 | 0.00 | ||
| 20260901202709 | 103 | 75 | 0.0 | 0.0 | 0.00 | 0.00 | 0.00 | ||
| 20260901202201 | 104 | 75 | 0.0 | 3.0 | 0.00 | 0.00 | 0.00 | ||
| 20260901201700 | 100 | 210 | 0.0 | 0.0 | 0.00 | 0.00 | 0.00 | ||
| 20260901201159 | 100 | 210 | 0.0 | 0.0 | 0.00 | 0.00 | 0.00 | ||
| 20260901200153 | 102 | 210 | 0.0 | 0.0 | 0.00 | 0.00 | 0.00 | ||
| 20260901194646 | 102 | 210 | 0.0 | 0.0 | 0.00 | 0.00 | 0.00 | ||
| 20260901193639 | 100 | 210 | 0.0 | 0.0 | 0.00 | 0.00 | 0.00 | ||
| 20260901193138 | 101 | 210 | 0.0 | 0.0 | 0.00 | 0.00 | 0.00 | ||
| 20260901192132 | 102 | 174 | 0.0 | 0.0 | 0.00 | 0.00 | 0.00 | ||
| 20260901190624 | 106 | 174 | 0.0 | 0.0 | 0.00 | 0.00 | 0.00 | ||
| 20260901190122 | 103 | 72 | 0.0 | 0.0 | 0.00 | 0.00 | 0.00 | ||
| 20260901185621 | 102 | 72 | 0.0 | 0.0 | 0.00 | 0.00 | 0.00 | ||
| 20260901185114 | 102 | 72 | 0.0 | 0.0 | 0.00 | 0.00 | 0.00 | ||
| 20260901184612 | 101 | 72 | 0.0 | 0.0 | 0.00 | 0.00 | 0.00 | ||
| 20260901184111 | 102 | 72 | 0.0 | 0.0 | 0.00 | 0.00 | 0.00 | ||
| 20260901182100 | 103 | 72 | 0.0 | 0.0 | 0.00 | 0.00 | 0.00 | ||
| 20260901142914 | 91 | 72 | 0.0 | 0.0 | 0.00 | 0.00 | 0.00 | ||
| 20260901135900 | 88 | 72 | 0.0 | 0.0 | 0.00 | 0.00 | 0.00 | ||
| 20260901134854 | 87 | 72 | 0.0 | 0.0 | 0.00 | 0.00 | 0.00 | ||
| 20260901134357 | 86 | 72 | 0.0 | 0.0 | 0.00 | 0.00 | 0.00 | ||
| 20260901131340 | 84 | 72 | 0.0 | 0.0 | 0.00 | 0.00 | 0.00 | ||
| 20260901124326 | 77 | 72 | 0.0 | 0.0 | 0.00 | 0.00 | 0.00 | ||
| 20260901123825 | 76 | 72 | 0.0 | 0.0 | 0.00 | 0.00 | 0.00 | ||
| 20260901120304 | 73 | 72 | 0.0 | 0.0 | 0.00 | 0.00 | 0.00 | ||
| 20260901112748 | 74 | 72 | 0.0 | 0.0 | 0.00 | 0.00 | 0.00 | ||
| 20260901110234 | 75 | 72 | 0.0 | 0.0 | 0.00 | 0.00 | 0.00 | ||
| 20260901105746 | 75 | 72 | 0.0 | 0.0 | 0.00 | 0.00 | 0.00 | ||
| 20260901105733 | 75 | 72 | 0.0 | 0.0 | 0.00 | 0.00 | 0.00 | ||
| 20260901103730 | 76 | 72 | 0.0 | 0.0 | 0.00 | 0.00 | 0.00 | ||
| 20260901102722 | 76 | 72 | 0.0 | 0.0 | 0.00 | 0.00 | 0.00 | ||
| 20260901101714 | 77 | 72 | 0.0 | 0.0 | 0.00 | 0.00 | 0.00 | ||
| 20260901101213 | 77 | 72 | 0.0 | 0.0 | 0.00 | 0.00 | 0.00 | ||
| 20260901100715 | 77 | 72 | 0.0 | 0.0 | 0.00 | 0.00 | 0.00 | ||
| 20260901095707 | 77 | 72 | 0.0 | 0.0 | 0.00 | 0.00 | 0.00 | ||
| 20260901094701 | 77 | 72 | 0.0 | 0.0 | 0.00 | 0.00 | 0.00 | ||
| 20260901094201 | 77 | 72 | 0.0 | 0.0 | 0.00 | 0.00 | 0.00 | ||
| 20260901093701 | 77 | 72 | 0.0 | 0.0 | 0.00 | 0.00 | 0.00 | ||
| 20260901073612 | 78 | 72 | 0.0 | 0.0 | 0.00 | 0.00 | 0.00 | ||
| 20260901032424 | 83 | 72 | 0.0 | 0.0 | 0.00 | 0.00 | 0.00 | ||
| 20260901031922 | 83 | 72 | 0.0 | 0.0 | 0.00 | 0.00 | 0.00 | ||
| 20260901031418 | 83 | 72 | 0.0 | 0.0 | 0.00 | 0.00 | 0.00 | ||
| 20260901030917 | 83 | 72 | 0.0 | 0.0 | 0.00 | 0.00 | 0.00 | ||
| 20260901030416 | 83 | 72 | 0.0 | 0.0 | 0.00 | 0.00 | 0.00 | ||
| 20260901022856 | 85 | 72 | 0.0 | 0.0 | 0.00 | 0.00 | 0.00 | ||
| 20260901021854 | 86 | 72 | 0.0 | 0.0 | 0.00 | 0.00 | 0.00 | ||
| 20260901021349 | 86 | 72 | 0.0 | 0.0 | 0.00 | 0.00 | 0.00 | ||
| 20260901020847 | 86 | 72 | 0.0 | 0.0 | 0.00 | 0.00 | 0.00 | ||
| 20260901020347 | 86 | 72 | 0.0 | 0.0 | 0.00 | 0.00 | 0.00 | ||
| 20260901015842 | 86 | 72 | 0.0 | 0.0 | 0.00 | 0.00 | 0.00 | ||
| 20260901015341 | 87 | 72 | 0.0 | 0.0 | 0.00 | 0.00 | 0.00 | ||
| 20260901014841 | 87 | 72 | 0.0 | 0.0 | 0.00 | 0.00 | 0.00 | ||
| 20260901014335 | 87 | 72 | 0.0 | 0.0 | 0.00 | 0.00 | 0.00 | ||
| 20260901013834 | 88 | 72 | 0.0 | 0.0 | 0.00 | 0.00 | 0.00 | ||
| 20260901012830 | 88 | 72 | 0.0 | 0.0 | 0.00 | 0.00 | 0.00 | ||
| 20260901012327 | 89 | 72 | 0.0 | 0.0 | 0.00 | 0.00 | 0.00 | ||
| 20260901011828 | 89 | 72 | 0.0 | 0.0 | 0.00 | 0.00 | 0.00 | ||
| 20260901011321 | 89 | 72 | 0.0 | 0.0 | 0.00 | 0.00 | 0.00 | ||
| 20260901010821 | 90 | 72 | 0.0 | 0.0 | 0.00 | 0.00 | 0.00 | ||
| 20260901005812 | 90 | 72 | 0.0 | 0.0 | 0.00 | 0.00 | 0.00 | ||
| 20260901005311 | 91 | 72 | 0.0 | 0.0 | 0.00 | 0.00 | 0.00 | ||
| 20260901004812 | 91 | 72 | 0.0 | 0.0 | 0.00 | 0.00 | 0.00 | ||
| 20260901004306 | 92 | 72 | 0.0 | 0.0 | 0.00 | 0.00 | 0.00 | ||
| 20260901003303 | 92 | 72 | 0.0 | 0.0 | 0.00 | 0.00 | 0.00 | ||
| 20260901002758 | 93 | 72 | 0.0 | 0.0 | 0.00 | 0.00 | 0.00 | ||
| 20260901002257 | 93 | 72 | 0.0 | 0.0 | 0.00 | 0.00 | 0.00 |